Weather History for Rochester, NH

Change the Weather History Date:

Sunday, November 25, 2012

  Actual Average (KSFM) Record (KSFM)
Temperature  
Mean Temperature 32 °F -  
Max Temperature 36 °F 42 °F 62 °F (2004)
Min Temperature 27 °F 25 °F 1 °F (2000)
Degree Days  
Heating Degree Days 34    
Moisture  
Dew Point 13 °F    
Average Humidity 47    
Maximum Humidity 69    
Minimum Humidity 25    
Precipitation  
Precipitation 0.00 in - - ()
Sea Level Pressure  
Sea Level Pressure 29.68 in    
Wind  
Wind Speed 8 mph (West)    
Max Wind Speed 14 mph    
Max Gust Speed 31 mph    
Visibility 10 miles    
Events      
Averages and records for this station are not official NWS values.
T = Trace of Precipitation, MM = Missing Value Source: NWS Daily Summary

Daily Weather History Graph

Daily Weather History Graph

Search for Another Location

Airport:

Trip Planner

Search our weather history database for the weather conditions in past years. The results will help you decide how hot, cold, wet, or windy it might be!

Date:

Astronomy

Nov. 25, 2012 Rise Set
Actual Time 6:49 AM EST 4:11 PM EST
Civil Twilight 6:18 AM EST 4:43 PM EST
Nautical Twilight 5:43 AM EST 5:18 PM EST
Astronomical Twilight 5:08 AM EST 5:52 PM EST
Moon 2:29 PM EST (11/25) 3:57 AM EST (11/25)
Length of Visible Light 10h 25m
Length of Day
9h 21m
Waxing Gibbous, 93% of the Moon is Illuminated
Nov 25
Waxing Gibbous
Nov 28
Full
Dec 6
Last Quarter
Dec 13
New
Dec 20
First Quarter

Hourly Weather History & Observations

Time (EST) Temp. Windchill Dew Point Humidity Pressure Visibility Wind Dir Wind Speed Gust Speed Precip Events Conditions
12:51 AM 30.9 °F 23.5 °F 15.1 °F 52% 29.57 in 10.0 mi West 8.1 mph 16.1 mph N/A   Mostly Cloudy
1:51 AM 30.0 °F 21.7 °F 16.0 °F 56% 29.60 in 10.0 mi West 9.2 mph 18.4 mph N/A   Mostly Cloudy
2:51 AM 30.0 °F 20.5 °F 16.0 °F 56% 29.62 in 10.0 mi West 11.5 mph 23.0 mph N/A   Partly Cloudy
4:51 AM 30.0 °F 22.4 °F 15.1 °F 54% 29.63 in 10.0 mi West 8.1 mph 19.6 mph N/A   Mostly Cloudy
5:51 AM 30.0 °F 21.7 °F 14.0 °F 51% 29.65 in 10.0 mi West 9.2 mph 17.3 mph N/A   Partly Cloudy
7:51 AM 30.0 °F 23.2 °F 12.9 °F 49% 29.67 in 10.0 mi Variable 6.9 mph - N/A   Partly Cloudy
8:51 AM 30.9 °F 20.7 °F 12.0 °F 46% 29.68 in 10.0 mi West 13.8 mph 31.1 mph N/A   Partly Cloudy
9:51 AM 32.0 °F 24.2 °F 12.0 °F 44% 29.69 in 10.0 mi West 9.2 mph 25.3 mph N/A   Partly Cloudy
10:51 AM 34.0 °F 27.2 °F 12.0 °F 40% 29.69 in 10.0 mi West 8.1 mph 20.7 mph N/A   Clear
11:51 AM 35.1 °F 26.4 °F 10.9 °F 37% 29.67 in 10.0 mi West 12.7 mph 23.0 mph N/A   Clear
12:51 PM 34.0 °F 26.6 °F 10.0 °F 37% 29.66 in 10.0 mi WNW 9.2 mph 18.4 mph N/A   Clear
1:51 PM 35.1 °F 29.3 °F 8.1 °F 33% 29.66 in 10.0 mi Variable 6.9 mph 21.9 mph N/A   Clear
2:51 PM 36.0 °F 29.6 °F 3.0 °F 25% 29.66 in 10.0 mi WNW 8.1 mph 21.9 mph N/A   Clear
3:51 PM 35.1 °F 30.1 °F 3.9 °F 27% 29.68 in 10.0 mi WNW 5.8 mph - N/A   Clear
4:51 PM 34.0 °F 31.0 °F 8.1 °F 34% 29.70 in 10.0 mi Variable 3.5 mph - N/A   Clear
5:51 PM 33.1 °F 30.0 °F 12.0 °F 42% 29.72 in 10.0 mi Variable 3.5 mph - N/A   Clear
6:51 PM 32.0 °F 28.7 °F 15.1 °F 50% 29.73 in 10.0 mi Variable 3.5 mph - N/A   Clear
7:51 PM 30.9 °F - 17.1 °F 57% 29.75 in 10.0 mi Calm Calm - N/A   Clear
9:51 PM 30.0 °F 24.1 °F 18.0 °F 61% 29.77 in 10.0 mi South 5.8 mph - N/A   Clear
10:51 PM 27.0 °F - 18.0 °F 69% 29.78 in 10.0 mi Calm Calm - N/A   Clear
11:51 PM 28.0 °F - 18.0 °F 66% 29.80 in 10.0 mi Calm Calm - N/A   Clear